Time,TemperatureF,DewpointF,PressureIn,WindDirection,WindDirectionDegrees,WindSpeedMPH,WindSpeedGustMPH,Humidity,HourlyPrecipIn,Conditions,Clouds,dailyrainin,SolarRadiationWatts/m^2,SoftwareType,DateUTC
2013-01-24 00:07:00,5.1,-5.0,30.15,WNW,297,0.0,0.0,62,0.00,,,0.00,0,weatherlink.com 1.10,2013-01-24 05:07:00,
2013-01-24 00:22:00,4.6,-6.0,30.15,WNW,297,0.0,0.0,63,0.00,,,0.00,0,weatherlink.com 1.10,2013-01-24 05:22:00,
2013-01-24 00:37:00,4.3,-5.0,30.15,WNW,297,0.0,1.0,65,0.00,,,0.00,0,weatherlink.com 1.10,2013-01-24 05:37:00,
2013-01-24 00:52:00,4.1,-5.0,30.15,WNW,297,0.0,1.0,66,0.00,,,0.00,0,weatherlink.com 1.10,2013-01-24 05:52:00,
2013-01-24 01:08:00,3.7,-5.0,30.15,WNW,297,0.0,0.0,66,0.00,,,0.00,0,weatherlink.com 1.10,2013-01-24 06:08:00,
2013-01-24 01:23:00,3.5,-5.0,30.15,WNW,297,0.0,1.0,67,0.00,,,0.00,0,weatherlink.com 1.10,2013-01-24 06:23:00,
2013-01-24 01:38:00,3.2,-5.0,30.15,WNW,297,0.0,1.0,68,0.00,,,0.00,0,weatherlink.com 1.10,2013-01-24 06:38:00,
2013-01-24 01:53:00,3.1,-5.0,30.15,WNW,297,0.0,0.0,69,0.00,,,0.00,0,weatherlink.com 1.10,2013-01-24 06:53:00,
2013-01-24 02:08:00,3.0,-5.0,30.16,WNW,297,0.0,0.0,70,0.00,,,0.00,0,weatherlink.com 1.10,2013-01-24 07:08:00,
2013-01-24 02:23:00,2.9,-5.0,30.16,WNW,297,0.0,0.0,70,0.00,,,0.00,0,weatherlink.com 1.10,2013-01-24 07:23:00,
2013-01-24 02:38:00,2.7,-5.0,30.15,WNW,297,0.0,0.0,71,0.00,,,0.00,0,weatherlink.com 1.10,2013-01-24 07:38:00,
2013-01-24 03:08:00,2.2,-5.0,30.15,WNW,297,0.0,0.0,71,0.00,,,0.00,0,weatherlink.com 1.10,2013-01-24 08:08:00,
2013-01-24 03:23:00,1.9,-6.0,30.14,WNW,297,0.0,0.0,71,0.00,,,0.00,0,weatherlink.com 1.10,2013-01-24 08:23:00,
2013-01-24 03:39:00,1.6,-6.0,30.14,WNW,297,0.0,1.0,72,0.00,,,0.00,0,weatherlink.com 1.10,2013-01-24 08:39:00,
2013-01-24 03:53:00,1.6,-5.0,30.14,WNW,297,0.0,1.0,73,0.00,,,0.00,0,weatherlink.com 1.10,2013-01-24 08:53:00,
2013-01-24 04:08:00,1.6,-5.0,30.14,WNW,297,0.0,0.0,74,0.00,,,0.00,0,weatherlink.com 1.10,2013-01-24 09:08:00,
2013-01-24 04:23:00,1.5,-5.0,30.15,WNW,297,0.0,1.0,74,0.00,,,0.00,0,weatherlink.com 1.10,2013-01-24 09:23:00,
2013-01-24 04:39:00,1.4,-5.0,30.16,WNW,297,0.0,0.0,75,0.00,,,0.00,0,weatherlink.com 1.10,2013-01-24 09:39:00,
2013-01-24 04:54:00,1.4,-5.0,30.16,WNW,297,0.0,1.0,76,0.00,,,0.00,0,weatherlink.com 1.10,2013-01-24 09:54:00,
2013-01-24 05:09:00,1.3,-5.0,30.17,WNW,297,0.0,2.0,76,0.00,,,0.00,0,weatherlink.com 1.10,2013-01-24 10:09:00,
2013-01-24 05:24:00,1.4,-4.0,30.17,WNW,297,0.0,2.0,77,0.00,,,0.00,0,weatherlink.com 1.10,2013-01-24 10:24:00,
2013-01-24 05:39:00,1.7,-4.0,30.18,WNW,297,0.0,2.0,77,0.00,,,0.00,0,weatherlink.com 1.10,2013-01-24 10:39:00,
2013-01-24 05:54:00,1.9,-4.0,30.18,WNW,297,0.0,1.0,78,0.00,,,0.00,0,weatherlink.com 1.10,2013-01-24 10:54:00,
2013-01-24 06:09:00,2.1,-3.0,30.18,WNW,297,0.0,2.0,78,0.00,,,0.00,0,weatherlink.com 1.10,2013-01-24 11:09:00,
2013-01-24 06:24:00,2.1,-4.0,30.19,WNW,297,0.0,2.0,77,0.00,,,0.00,0,weatherlink.com 1.10,2013-01-24 11:24:00,
2013-01-24 06:40:00,2.2,-3.0,30.19,WNW,297,0.0,1.0,77,0.00,,,0.00,0,weatherlink.com 1.10,2013-01-24 11:40:00,
2013-01-24 06:54:00,2.1,-4.0,30.20,WNW,297,0.0,1.0,77,0.00,,,0.00,0,weatherlink.com 1.10,2013-01-24 11:54:00,
2013-01-24 07:09:00,2.2,-3.0,30.20,WNW,297,0.0,0.0,77,0.00,,,0.00,0,weatherlink.com 1.10,2013-01-24 12:09:00,
2013-01-24 07:39:00,2.0,-4.0,30.21,WNW,297,0.0,1.0,77,0.00,,,0.00,7,weatherlink.com 1.10,2013-01-24 12:39:00,
2013-01-24 07:54:00,1.7,-4.0,30.21,WNW,297,0.0,2.0,77,0.00,,,0.00,12,weatherlink.com 1.10,2013-01-24 12:54:00,
2013-01-24 08:09:00,1.6,-4.0,30.22,WNW,297,1.0,1.0,77,0.00,,,0.00,19,weatherlink.com 1.10,2013-01-24 13:09:00,
2013-01-24 08:25:00,1.4,-4.0,30.22,WNW,297,0.0,2.0,78,0.00,,,0.00,30,weatherlink.com 1.10,2013-01-24 13:25:00,
2013-01-24 08:40:00,1.7,-4.0,30.22,WNW,297,0.0,1.0,78,0.00,,,0.00,23,weatherlink.com 1.10,2013-01-24 13:40:00,
2013-01-24 08:55:00,2.1,-3.0,30.22,WNW,297,0.0,2.0,78,0.00,,,0.00,23,weatherlink.com 1.10,2013-01-24 13:55:00,
2013-01-24 09:10:00,2.9,-3.0,30.22,WNW,297,0.0,2.0,78,0.00,,,0.00,28,weatherlink.com 1.10,2013-01-24 14:10:00,
2013-01-24 09:25:00,4.1,-1.0,30.22,WNW,297,0.0,1.0,78,0.00,,,0.00,25,weatherlink.com 1.10,2013-01-24 14:25:00,
2013-01-24 09:40:00,5.1,-1.0,30.23,WNW,297,0.0,2.0,77,0.00,,,0.00,26,weatherlink.com 1.10,2013-01-24 14:40:00,
2013-01-24 09:55:00,5.6,0.0,30.23,WNW,297,0.0,2.0,77,0.00,,,0.00,90,weatherlink.com 1.10,2013-01-24 14:55:00,
2013-01-24 10:10:00,6.2,0.0,30.23,WNW,297,0.0,1.0,77,0.00,,,0.00,35,weatherlink.com 1.10,2013-01-24 15:10:00,
2013-01-24 10:25:00,7.4,1.0,30.23,WNW,297,1.0,3.0,76,0.00,,,0.00,63,weatherlink.com 1.10,2013-01-24 15:25:00,
2013-01-24 10:41:00,9.9,3.0,30.23,WNW,297,0.0,2.0,72,0.00,,,0.00,229,weatherlink.com 1.10,2013-01-24 15:41:00,
2013-01-24 10:55:00,13.0,3.0,30.22,North,351,0.0,3.0,65,0.00,,,0.00,167,weatherlink.com 1.10,2013-01-24 15:55:00,
2013-01-24 11:11:00,14.9,1.0,30.22,WSW,255,2.0,4.0,54,0.00,,,0.00,436,weatherlink.com 1.10,2013-01-24 16:11:00,
2013-01-24 11:25:00,15.3,0.0,30.22,NNW,345,5.0,7.0,51,0.00,,,0.00,362,weatherlink.com 1.10,2013-01-24 16:25:00,
2013-01-24 11:41:00,15.3,-1.0,30.22,SSE,166,2.0,10.0,48,0.00,,,0.00,568,weatherlink.com 1.10,2013-01-24 16:41:00,
2013-01-24 11:56:00,16.1,-1.0,30.21,North,350,4.0,8.0,47,0.00,,,0.00,527,weatherlink.com 1.10,2013-01-24 16:56:00,
2013-01-24 12:11:00,17.0,-2.0,30.21,SSE,163,1.0,7.0,44,0.00,,,0.00,497,weatherlink.com 1.10,2013-01-24 17:11:00,
2013-01-24 12:26:00,17.4,-2.0,30.20,NNW,336,1.0,10.0,43,0.00,,,0.00,594,weatherlink.com 1.10,2013-01-24 17:26:00,
2013-01-24 12:41:00,18.3,-1.0,30.20,NNW,343,2.0,8.0,42,0.00,,,0.00,561,weatherlink.com 1.10,2013-01-24 17:41:00,
2013-01-24 12:56:00,17.9,-3.0,30.20,SW,216,1.0,15.0,40,0.00,,,0.00,591,weatherlink.com 1.10,2013-01-24 17:56:00,
2013-01-24 13:11:00,18.4,-3.0,30.20,NNE,22,6.0,11.0,39,0.00,,,0.00,578,weatherlink.com 1.10,2013-01-24 18:11:00,
2013-01-24 13:26:00,18.6,-3.0,30.20,NNW,346,10.0,10.0,39,0.00,,,0.00,571,weatherlink.com 1.10,2013-01-24 18:26:00,
2013-01-24 13:41:00,18.5,-4.0,30.20,WNW,284,3.0,15.0,36,0.00,,,0.00,554,weatherlink.com 1.10,2013-01-24 18:41:00,
2013-01-24 13:57:00,19.2,-3.0,30.20,South,182,2.0,9.0,37,0.00,,,0.00,538,weatherlink.com 1.10,2013-01-24 18:57:00,
2013-01-24 14:12:00,18.8,-5.0,30.20,NW,323,5.0,16.0,34,0.00,,,0.00,506,weatherlink.com 1.10,2013-01-24 19:12:00,
2013-01-24 14:26:00,19.3,-5.0,30.21,SSE,159,2.0,13.0,34,0.00,,,0.00,482,weatherlink.com 1.10,2013-01-24 19:26:00,
2013-01-24 14:41:00,19.8,-5.0,30.21,West,262,1.0,10.0,34,0.00,,,0.00,446,weatherlink.com 1.10,2013-01-24 19:41:00,
2013-01-24 14:57:00,19.6,-5.0,30.22,ESE,119,5.0,10.0,33,0.00,,,0.00,415,weatherlink.com 1.10,2013-01-24 19:57:00,
2013-01-24 15:12:00,19.0,-6.0,30.23,NW,321,6.0,11.0,32,0.00,,,0.00,369,weatherlink.com 1.10,2013-01-24 20:12:00,
2013-01-24 15:27:00,18.9,-7.0,30.22,NW,309,8.0,9.0,32,0.00,,,0.00,267,weatherlink.com 1.10,2013-01-24 20:27:00,
2013-01-24 15:57:00,17.9,-7.0,30.24,North,355,8.0,12.0,32,0.00,,,0.00,69,weatherlink.com 1.10,2013-01-24 20:57:00,
2013-01-24 16:12:00,17.0,-8.0,30.24,WNW,298,3.0,11.0,33,0.00,,,0.00,19,weatherlink.com 1.10,2013-01-24 21:12:00,
2013-01-24 16:27:00,16.6,-7.0,30.24,West,276,1.0,8.0,34,0.00,,,0.00,14,weatherlink.com 1.10,2013-01-24 21:27:00,
2013-01-24 16:42:00,16.3,-6.0,30.25,SSW,206,0.0,10.0,36,0.00,,,0.00,9,weatherlink.com 1.10,2013-01-24 21:42:00,
2013-01-24 16:57:00,16.0,-6.0,30.25,SW,217,2.0,9.0,37,0.00,,,0.00,0,weatherlink.com 1.10,2013-01-24 21:57:00,
2013-01-24 17:12:00,15.5,-6.0,30.27,NNE,14,1.0,9.0,38,0.00,,,0.00,0,weatherlink.com 1.10,2013-01-24 22:12:00,
2013-01-24 17:28:00,15.1,-6.0,30.28,North,5,2.0,7.0,39,0.00,,,0.00,0,weatherlink.com 1.10,2013-01-24 22:28:00,
2013-01-24 17:42:00,14.8,-6.0,30.29,WNW,300,5.0,8.0,40,0.00,,,0.00,0,weatherlink.com 1.10,2013-01-24 22:42:00,
2013-01-24 17:58:00,14.7,-5.0,30.29,SSW,192,2.0,8.0,41,0.00,,,0.00,0,weatherlink.com 1.10,2013-01-24 22:58:00,
2013-01-24 18:12:00,14.6,-5.0,30.30,West,266,0.0,5.0,42,0.00,,,0.00,0,weatherlink.com 1.10,2013-01-24 23:12:00,
2013-01-24 18:28:00,14.3,-5.0,30.30,SE,131,1.0,9.0,43,0.00,,,0.00,0,weatherlink.com 1.10,2013-01-24 23:28:00,
2013-01-24 18:43:00,14.1,-4.0,30.31,South,188,0.0,6.0,45,0.00,,,0.00,0,weatherlink.com 1.10,2013-01-24 23:43:00,
2013-01-24 18:58:00,13.8,-3.0,30.32,SW,218,3.0,4.0,48,0.00,,,0.00,0,weatherlink.com 1.10,2013-01-24 23:58:00,
2013-01-24 19:13:00,13.7,-2.0,30.32,North,355,5.0,8.0,49,0.00,,,0.00,0,weatherlink.com 1.10,2013-01-25 00:13:00,
2013-01-24 19:28:00,13.4,-2.0,30.33,NNW,340,3.0,6.0,51,0.00,,,0.00,0,weatherlink.com 1.10,2013-01-25 00:28:00,
2013-01-24 19:43:00,13.4,-1.0,30.32,SSE,165,3.0,6.0,52,0.00,,,0.00,0,weatherlink.com 1.10,2013-01-25 00:43:00,
2013-01-24 19:58:00,13.3,-1.0,30.32,WNW,296,1.0,3.0,54,0.00,,,0.00,0,weatherlink.com 1.10,2013-01-25 00:58:00,
2013-01-24 20:13:00,13.5,0.0,30.32,SW,217,0.0,5.0,55,0.00,,,0.00,0,weatherlink.com 1.10,2013-01-25 01:13:00,
2013-01-24 20:28:00,13.5,0.0,30.32,WSW,241,0.0,6.0,56,0.00,,,0.00,0,weatherlink.com 1.10,2013-01-25 01:28:00,
2013-01-24 20:44:00,13.6,1.0,30.31,NW,324,1.0,4.0,57,0.00,,,0.00,0,weatherlink.com 1.10,2013-01-25 01:44:00,
2013-01-24 21:13:00,13.9,2.0,30.31,NNW,345,2.0,7.0,59,0.00,,,0.00,0,weatherlink.com 1.10,2013-01-25 02:13:00,
2013-01-24 21:29:00,13.9,2.0,30.31,SW,229,1.0,4.0,59,0.00,,,0.00,0,weatherlink.com 1.10,2013-01-25 02:29:00,
2013-01-24 21:44:00,13.9,2.0,30.32,NNW,336,2.0,5.0,60,0.00,,,0.00,0,weatherlink.com 1.10,2013-01-25 02:44:00,
2013-01-24 21:59:00,14.2,2.0,30.32,NNW,330,3.0,7.0,59,0.00,,,0.00,0,weatherlink.com 1.10,2013-01-25 02:59:00,
2013-01-24 22:14:00,14.3,2.0,30.32,WSW,256,4.0,6.0,58,0.00,,,0.00,0,weatherlink.com 1.10,2013-01-25 03:14:00,
2013-01-24 22:29:00,14.4,2.0,30.32,NNW,339,3.0,6.0,58,0.00,,,0.00,0,weatherlink.com 1.10,2013-01-25 03:29:00,
2013-01-24 22:44:00,14.4,2.0,30.33,West,259,1.0,5.0,58,0.00,,,0.00,0,weatherlink.com 1.10,2013-01-25 03:44:00,
2013-01-24 22:59:00,14.4,2.0,30.33,WSW,237,1.0,6.0,58,0.00,,,0.00,0,weatherlink.com 1.10,2013-01-25 03:59:00,
2013-01-24 23:14:00,14.4,2.0,30.33,NNW,342,5.0,7.0,58,0.00,,,0.00,0,weatherlink.com 1.10,2013-01-25 04:14:00,
2013-01-24 23:29:00,14.4,2.0,30.32,NW,316,0.0,8.0,58,0.00,,,0.00,0,weatherlink.com 1.10,2013-01-25 04:29:00,
2013-01-24 23:44:00,14.4,2.0,30.33,East,92,2.0,10.0,58,0.00,,,0.00,0,weatherlink.com 1.10,2013-01-25 04:44:00,
2013-01-24 23:59:00,14.3,2.0,30.33,NNW,338,2.0,6.0,58,0.00,,,0.00,0,weatherlink.com 1.10,2013-01-25 04:59:00,